• In Belarus
  • List of Countries
  • For 7 days
  • Water Temperature
  • Satellite Maps
  • Weather Map
  • Weather Widgets
  • user-avatar
    Login

    Hourly Weather Paralia

    Today, 22 January, Monday

    Time Temperature Precipitation Wind Pressure Humidity
    00:00 +10°C° 0.5 mm 2 mps 737 mmHg 95%
    01:00 +10°C° 0 mm 3 mps 737 mmHg 95%
    02:00 +10°C° 0.7 mm 3 mps 737 mmHg 94%
    03:00 +10°C° 0.7 mm 4 mps 737 mmHg 93%
    04:00 +9°C° 0.7 mm 5 mps 737 mmHg 92%
    05:00 +8°C° 0.3 mm 5 mps 737 mmHg 91%
    06:00 +8°C° 0.3 mm 5 mps 738 mmHg 89%
    07:00 +7°C° 0.3 mm 5 mps 738 mmHg 88%
    08:00 +8°C° 0.1 mm 5 mps 739 mmHg 84%
    09:00 +9°C° 0.1 mm 5 mps 740 mmHg 79%
    10:00 +10°C° 0.1 mm 4 mps 740 mmHg 74%
    11:00 +10°C° 0 mm 5 mps 741 mmHg 69%
    12:00 +10°C° 0 mm 5 mps 741 mmHg 64%
    13:00 +12°C° 0 mm 5 mps 742 mmHg 59%
    14:00 +11°C° 0 mm 4 mps 742 mmHg 62%
    15:00 +11°C° 0 mm 4 mps 742 mmHg 64%
    16:00 +10°C° 0 mm 3 mps 743 mmHg 67%
    17:00 +9°C° 0 mm 3 mps 744 mmHg 69%
    18:00 +8°C° 0 mm 3 mps 744 mmHg 72%
    19:00 +7°C° 0 mm 2 mps 745 mmHg 74%
    20:00 +7°C° 0 mm 2 mps 745 mmHg 73%
    21:00 +6°C° 0 mm 2 mps 746 mmHg 73%
    22:00 +6°C° 0 mm 2 mps 746 mmHg 72%
    23:00 +6°C° 0 mm 2 mps 747 mmHg 71%

    Tomorrow, 23 January, Tuesday

    Time Temperature Precipitation Wind Pressure Humidity
    00:00 +7°C° 0 mm 1 mps 747 mmHg 70%
    01:00 +7°C° 0 mm 1 mps 747 mmHg 70%
    02:00 +7°C° 0 mm 1 mps 747 mmHg 70%
    03:00 +6°C° 0 mm 1 mps 748 mmHg 70%
    04:00 +6°C° 0 mm 1 mps 748 mmHg 70%
    05:00 +7°C° 0 mm 1 mps 748 mmHg 70%
    06:00 +7°C° 0 mm 1 mps 748 mmHg 70%
    07:00 +7°C° 0 mm 1 mps 749 mmHg 69%
    08:00 +8°C° 0 mm 1 mps 749 mmHg 66%
    09:00 +9°C° 0 mm 1 mps 750 mmHg 63%
    10:00 +11°C° 0 mm 1 mps 750 mmHg 59%
    11:00 +11°C° 0 mm 1 mps 750 mmHg 57%
    12:00 +12°C° 0 mm 1 mps 750 mmHg 56%
    13:00 +13°C° 0 mm 1 mps 750 mmHg 54%
    14:00 +12°C° 0 mm 1 mps 751 mmHg 60%
    15:00 +11°C° 0 mm 1 mps 751 mmHg 65%
    16:00 +11°C° 0 mm 1 mps 751 mmHg 70%
    17:00 +10°C° 0.2 mm 1 mps 751 mmHg 73%
    18:00 +10°C° 0.2 mm 1 mps 752 mmHg 76%
    19:00 +9°C° 0.2 mm 1 mps 752 mmHg 78%
    20:00 +8°C° 0.4 mm 2 mps 753 mmHg 80%
    21:00 +7°C° 0.4 mm 2 mps 753 mmHg 82%
    22:00 +7°C° 0.4 mm 2 mps 753 mmHg 83%
    23:00 +7°C° 0.3 mm 2 mps 754 mmHg 83%

    Day after tomorrow, 24 January, Wednesday

    Time Temperature Precipitation Wind Pressure Humidity
    00:00 +7°C° 0.3 mm 3 mps 754 mmHg 83%
    01:00 +7°C° 0.3 mm 3 mps 754 mmHg 83%
    02:00 +5°C° 0.1 mm 3 mps 754 mmHg 83%
    03:00 +5°C° 0.1 mm 3 mps 754 mmHg 83%
    04:00 +5°C° 0.1 mm 3 mps 754 mmHg 83%
    05:00 +4°C° 0.1 mm 3 mps 755 mmHg 83%
    06:00 +4°C° 0.1 mm 3 mps 756 mmHg 83%
    07:00 +4°C° 0.1 mm 3 mps 756 mmHg 83%
    08:00 +5°C° 0 mm 3 mps 757 mmHg 78%
    09:00 +7°C° 0 mm 3 mps 757 mmHg 73%
    10:00 +8°C° 0 mm 3 mps 758 mmHg 69%
    11:00 +9°C° 0 mm 3 mps 758 mmHg 66%
    12:00 +9°C° 0 mm 3 mps 758 mmHg 64%
    13:00 +9°C° 0 mm 3 mps 758 mmHg 62%
    14:00 +9°C° 0 mm 3 mps 758 mmHg 64%
    15:00 +8°C° 0 mm 3 mps 758 mmHg 66%
    16:00 +7°C° 0 mm 3 mps 758 mmHg 68%
    17:00 +5°C° 0 mm 3 mps 758 mmHg 71%
    18:00 +4°C° 0 mm 3 mps 758 mmHg 74%
    19:00 +3°C° 0 mm 3 mps 759 mmHg 77%
    20:00 +3°C° 0 mm 3 mps 759 mmHg 78%
    21:00 +3°C° 0 mm 3 mps 759 mmHg 78%
    22:00 +3°C° 0 mm 3 mps 759 mmHg 79%
    23:00 +2°C° 0 mm 3 mps 759 mmHg 78%

    25 January, Thursday

    Time Temperature Precipitation Wind Pressure Humidity
    00:00 +2°C° 0 mm 3 mps 759 mmHg 78%
    01:00 +2°C° 0 mm 3 mps 759 mmHg 78%
    02:00 +2°C° 0 mm 3 mps 759 mmHg 78%
    03:00 +2°C° 0 mm 3 mps 759 mmHg 78%
    04:00 +3°C° 0 mm 2 mps 759 mmHg 78%
    05:00 +3°C° 0 mm 2 mps 759 mmHg 77%
    06:00 +2°C° 0 mm 2 mps 759 mmHg 76%
    07:00 +2°C° 0 mm 2 mps 759 mmHg 75%
    08:00 +4°C° 0 mm 2 mps 759 mmHg 68%
    09:00 +6°C° 0 mm 2 mps 759 mmHg 61%
    10:00 +8°C° 0 mm 2 mps 759 mmHg 54%
    11:00 +9°C° 0 mm 2 mps 759 mmHg 52%
    12:00 +10°C° 0 mm 2 mps 758 mmHg 50%
    13:00 +12°C° 0 mm 2 mps 757 mmHg 48%
    14:00 +10°C° 0 mm 2 mps 757 mmHg 53%
    15:00 +9°C° 0 mm 2 mps 757 mmHg 57%
    16:00 +9°C° 0 mm 2 mps 757 mmHg 62%
    17:00 +7°C° 0 mm 2 mps 757 mmHg 65%
    18:00 +6°C° 0 mm 2 mps 757 mmHg 68%
    19:00 +5°C° 0 mm 2 mps 757 mmHg 71%
    20:00 +5°C° 0 mm 2 mps 757 mmHg 71%
    21:00 +4°C° 0 mm 2 mps 757 mmHg 71%
    22:00 +4°C° 0 mm 2 mps 757 mmHg 71%
    23:00 +5°C° 0 mm 1 mps 757 mmHg 70%

    26 January, Friday

    Time Temperature Precipitation Wind Pressure Humidity
    00:00 +5°C° 0 mm 1 mps 757 mmHg 69%
    01:00 +5°C° 0 mm 1 mps 757 mmHg 68%
    02:00 +5°C° 0 mm 1 mps 756 mmHg 68%
    03:00 +5°C° 0 mm 1 mps 756 mmHg 67%
    04:00 +5°C° 0 mm 1 mps 756 mmHg 66%
    05:00 +5°C° 0 mm 1 mps 756 mmHg 66%
    06:00 +5°C° 0 mm 1 mps 756 mmHg 65%
    07:00 +5°C° 0 mm 1 mps 756 mmHg 64%
    08:00 +7°C° 0 mm 1 mps 756 mmHg 59%
    09:00 +9°C° 0 mm 1 mps 756 mmHg 54%
    10:00 +11°C° 0 mm 0 mps 756 mmHg 49%
    11:00 +12°C° 0 mm 1 mps 756 mmHg 49%
    12:00 +13°C° 0 mm 1 mps 755 mmHg 48%
    13:00 +13°C° 0 mm 1 mps 755 mmHg 48%
    14:00 +12°C° 0 mm 1 mps 755 mmHg 54%
    15:00 +12°C° 0 mm 1 mps 755 mmHg 61%
    16:00 +11°C° 0 mm 1 mps 755 mmHg 67%
    17:00 +9°C° 0 mm 1 mps 755 mmHg 70%
    18:00 +8°C° 0 mm 1 mps 755 mmHg 74%
    19:00 +7°C° 0 mm 1 mps 756 mmHg 77%
    20:00 +7°C° 0 mm 1 mps 756 mmHg 78%
    21:00 +7°C° 0 mm 1 mps 756 mmHg 79%
    22:00 +7°C° 0 mm 1 mps 756 mmHg 79%
    23:00 +7°C° 0 mm 1 mps 756 mmHg 80%

    27 January, Saturday

    Time Temperature Precipitation Wind Pressure Humidity
    00:00 +6°C° 0 mm 1 mps 756 mmHg 80%
    01:00 +6°C° 0 mm 1 mps 756 mmHg 81%
    02:00 +6°C° 0 mm 1 mps 756 mmHg 81%
    03:00 +6°C° 0 mm 1 mps 756 mmHg 82%
    04:00 +6°C° 0 mm 1 mps 756 mmHg 82%
    05:00 +6°C° 0 mm 1 mps 756 mmHg 82%
    06:00 +6°C° 0 mm 1 mps 756 mmHg 82%
    07:00 +6°C° 0 mm 1 mps 757 mmHg 82%
    08:00 +8°C° 0 mm 1 mps 757 mmHg 75%
    09:00 +10°C° 0 mm 1 mps 757 mmHg 69%
    10:00 +12°C° 0 mm 1 mps 757 mmHg 62%
    11:00 +13°C° 0 mm 1 mps 757 mmHg 60%
    12:00 +14°C° 0 mm 1 mps 757 mmHg 59%
    13:00 +14°C° 0 mm 1 mps 756 mmHg 58%
    14:00 +13°C° 0 mm 1 mps 757 mmHg 63%
    15:00 +13°C° 0 mm 1 mps 757 mmHg 68%
    16:00 +12°C° 0 mm 1 mps 757 mmHg 73%
    17:00 +11°C° 0 mm 1 mps 757 mmHg 77%
    18:00 +9°C° 0 mm 1 mps 757 mmHg 81%
    19:00 +8°C° 0 mm 1 mps 758 mmHg 85%
    20:00 +8°C° 0 mm 1 mps 758 mmHg 85%
    21:00 +8°C° 0 mm 1 mps 758 mmHg 86%
    22:00 +8°C° 0 mm 1 mps 758 mmHg 86%
    23:00 +7°C° 0 mm 1 mps 759 mmHg 86%
    Show more